Regional Weather Roundup
Issued by NWS Wilmington, NC

Home | Current Version | Previous Version | Text Only | Print | Product List | Glossary On
Versions: 1 2 3 4 5 6 7 8 9 10 11 12 13 14 15 16 17 18 19 20 21 22 23 24 25 26 27 28 29 30 31 32 33 34 35 36 37 38 39 40 41 42 43 44 45 46 47 48 49 50
000
ASUS42 KILM 201110
RWRILM
RWRILM
REGIONAL HOURLY WEATHER ROUNDUP
NATIONAL WEATHER SERVICE WILMINGTON NC
700 AM EDT WED AUG 20 2014

NOTE: "FAIR" INDICATES FEW OR NO CLOUDS BELOW 12,000 FEET WITH NO
SIGNIFICANT WEATHER AND/OR OBSTRUCTIONS TO VISIBILITY.

...............WFO WILMINGTON COUNTY WARNING AREA...............

......COASTAL NC AND SC COUNTIES......

CITY           SKY/WX    TMP DP  RH WIND       PRES   REMARKS
WILMINGTON     CLEAR     75  73  93 CALM      29.92R
SOUTHPORT      CLEAR     74  71  92 N5        29.92R
N MYRTLE BEACH CLEAR     75  73  93 NW3       29.92R FOG
MYRTLE BEACH   CLEAR     75  72  88 NW5       29.92R

......INLAND NC AND SC COUNTIES.......

CITY           SKY/WX    TMP DP  RH WIND       PRES   REMARKS
LUMBERTON      CLEAR     73  71  93 CALM      29.92R
ELIZABETHTOWN  CLEAR     73  73 100 CALM      29.93R FOG
WHITEVILLE     CLEAR     73  71  95 CALM      29.92R FOG
FLORENCE       MOCLDY    73  71  93 CALM      29.93R FOG
DARLINGTON     CLEAR     70  66  88 S3        29.94R VSB 1

....................REST OF NORTH CAROLINA......................

.........EASTERN NC.........

CITY           SKY/WX    TMP DP  RH WIND       PRES   REMARKS
CAPE HATTERAS  MOCLDY    77  75  93 VRB3      29.89R
JACKSONVILLE   CLOUDY    72  68  88 CALM      29.93R VSB 1/2
MOREHEAD CITY  PTCLDY    77  75  93 NW10      29.91R
KENANSVILLE    CLOUDY    72  70  94 CALM      29.94R FOG
NEW BERN       CLOUDY    75  72  88 N5        29.93R FOG
ELIZABETH CITY PTCLDY    74  72  93 NW7       29.91R

.........CENTRAL NC.........

CITY           SKY/WX    TMP DP  RH WIND       PRES   REMARKS
RALEIGH DURHAM FOG       72  70  93 CALM      29.95R VSB 1/4
ROCKY MOUNT    FOG       72  71  97 NE3       29.94R VSB 1/4
ROANOKE RAPIDS NOT AVBL
FAYETTEVILLE   PTCLDY    74  72  93 N6        29.93R
HOFFMAN        FOG       72  71  98 N2        29.95R VSB 3/8

.........WESTERN NC.........

CITY           SKY/WX    TMP DP  RH WIND       PRES   REMARKS
CHARLOTTE      MOCLDY    67  65  93 CALM      29.97R
GREENSBORO     FOG       72  70  94 NE6       29.97R VSB 3/4
HICKORY        NOT AVBL
BOONE          NOT AVBL
ASHEVILLE      NOT AVBL

.....................REST OF SOUTH CAROLINA.....................

.........EASTERN SC.........

CITY           SKY/WX    TMP DP  RH WIND       PRES   REMARKS
CHARLESTON     PTCLDY    75  71  87 W7        29.95R
BEAUFORT MCAS  PTCLDY    75  71  87 NW6       29.96R
HILTON HEAD    NOT AVBL

.........CENTRAL SC.........

CITY           SKY/WX    TMP DP  RH WIND       PRES   REMARKS
COLUMBIA       PTCLDY    72  69  90 CALM      29.94R
ORANGEBURG     CLEAR     72  70  93 W3        29.95R
SUMTER SHAW    CLEAR     73  71  93 W5        29.93R

.........WESTERN SC.........

CITY           SKY/WX    TMP DP  RH WIND       PRES   REMARKS
GREENVILLE     NOT AVBL
ROCK HILL      CLEAR     68  67  96 CALM      29.97R FOG
ANDERSON       CLEAR     68  66  93 CALM      29.98R
CLEMSON        NOT AVBL
GREENWOOD      CLEAR     70  67  90 CALM      29.98R


...................COASTAL AND OFFSHORE REPORTS..................

................LOCAL PIERS AND NC RESERVE................


STATION/POSITION TIME  SKY/WX   TEMP    WIND        PRES    VSBY
                                AIR SEA DIR/SP/G
                 (UTC)          (F)     (DEG/KT/KT) (MB)    (MI)
JOHNY MRCER PIER 1100            75 83  320/  6/  9 1012.6R
NC RESRV MASNBRO 1000            74        CALM     1012.0S
OCEAN CREST PIER 1100            74 82  330/  5/  7 1012.2R
SPRINGMAID  PIER 1100            75 83  300/  6/  8 1013.1R


................COASTAL AND OFFSHORE BUOYS................


STATION/POSITION TIME  SKY/WX   TEMP    WIND        PRES    VSBY
                                AIR SEA DIR/SP/G
                 (UTC)          (F)     (DEG/KT/KT) (MB)    (MI)
DIMNDSHOAL 41025 1100            79     320/  8/ 10 1011.6R
WVE H/P(F/S)=  3/ 7 WND WVE H/P(F/S)=  2/ 4 SWL H/P/D(F/S/D)=  3/200/ 7

CAPE LOOKOUT     1000            78     330/  6/  8 1011.7R
ONSLOW BAY 41036 1100            79 81  300/ 12/ 14 1012.0R
WVE H/P(F/S)=  4/ 7 WND WVE H/P(F/S)=  2/ 4 SWL H/P/D(F/S/D)=  3/190/ 7

5 WRITEBCH 41038 1000            75 82  320/ 10/ 12   N/A
MASONBORO  41110 1100               82                N/A
WVE H/P(F/S)=  2/ 6 WND WVE H/P(F/S)=  2/ 6

WILM HARBR 41108 1100               83                N/A
WVE H/P(F/S)=  3/ 6 WND WVE H/P(F/S)=  3/ 6

27WRITEBCH 41037 1000            76 82  320/ 12/ 14 1012.2R
FRYING PAN 41013 NOT AVBL
SUNST NRSH 41024 1000            77     330/  6/  8 1012.4R
CAPRS NRSH 41029 1000            78     290/ 12/ 14   N/A
EDISTO     41004 1100            81 83  270/ 12/ 14 1013.1R
WVE H/P(F/S)=  4/ 5 WND WVE H/P(F/S)=  3/ 5 SWL H/P/D(F/S/D)=  2/ 8



..........OFFSHORE BUOYS BEYOND 100 NM OFFSHORE...........
.....IN A TRIANGLE---HAT TO BERMUDA TO BAHAMAS TO HAT.....


STATION/POSITION TIME  SKY/WX   TEMP    WIND        PRES    VSBY
                                AIR SEA DIR/SP/G
                 (UTC)          (F)     (DEG/KT/KT) (MB)    (MI)
150E HAT   41001 NOT AVBL
W BERMUDA  41048 1050            82 81  240/ 16/ 19 1015.7R
WVE H/P(F/S)=  6/ 7 WND WVE H/P(F/S)=  5/ 7 SWL H/P/D(F/S/D)=  2/150/11

ATLANTIC S 41049 1006            83 85   80/  4/  6 1019.2R
WVE H/P(F/S)=  3/ 9 SWL H/P/D(F/S/D)=  3/ 80/ 9

E BAHAMAS  41046 1046            84 85  110/ 14/ 17 1017.8R
WVE H/P(F/S)=  4/ 5 WND WVE H/P(F/S)=  3/ 5 SWL H/P/D(F/S/D)=  2/ 90/10

NE BAHAMAS 41047 1050            83 84  200/  8/ 12 1018.3R
WVE H/P(F/S)=  2/ 8 WND WVE H/P(F/S)=  2/ 3 SWL H/P/D(F/S/D)=  2/120/ 8

120E CANVRL41010 1100            79 86  270/ 17/ 23 1017.1R
WVE H/P(F/S)=  3/ 4 WND WVE H/P(F/S)=  2/ 4 SWL H/P/D(F/S/D)=  2/140/ 8


END


USA.gov is the U.S. government's official web portal to all federal, state and local government web resources and services.